Regional Weather Roundup
Issued by NWS

Home | Current Version | Previous Version | Text Only | Print | Product List | Glossary On
Versions: 1 2 3 4 5 6 7 8 9 10 11 12 13 14 15 16 17 18 19 20 21 22 23 24 25 26 27 28 29 30 31 32 33 34 35 36 37 38 39 40 41 42 43 44 45 46 47 48 49 50
000
ASUS42 KFFC 201003
RWRGA
WEATHER ROUNDUP FOR GEORGIA
NATIONAL WEATHER SERVICE PEACHTREE CITY GA
500 AM EST SAT DEC 20 2014

NOTE: "FAIR" INDICATES FEW OR NO CLOUDS BELOW 12,000 FEET WITH NO
SIGNIFICANT WEATHER AND/OR OBSTRUCTIONS TO VISIBILITY.

* = USE WITH CAUTION. THE STATIONS MARKED WITH AN ASTERISK MAY NOT
REPORT WEATHER SUCH AS PRECIPITATION, FOG, OR THUNDER AND ARE NOT
QUALITY CONTROLLED BY NWS.

THE REMARK "TC" DENOTES TEMPERATURE READING IN DEGREES CELSIUS.

GAZ001>058-201100-
NORTH GEORGIA

CITY           SKY/WX    TMP DP  RH WIND       PRES   REMARKS
ATLANTA        LGT RAIN  43  39  86 CALM      30.13S
ATHENS         LGT RAIN  45  41  86 NE7       30.11F
CHAMBLEE       LGT RAIN  41  40  96 CALM      30.13S FOG
PEACHTREE CITY RAIN      42  40  92 CALM      30.14R FOG
ROME           LGT RAIN  39  38  96 CALM      30.15S
WEST ATLANTA   LGT RAIN  41  38  89 CALM      30.14S
GAINESVILLE    LGT RAIN  43  41  93 NE5       30.13F
CARTERSVILLE   CLOUDY    39  37  92 CALM      30.17R FOG


CITY           SKY/WX    TMP DP  RH WIND       PRES   REMARKS
DALTON*        CLOUDY    37  36  93 CALM      30.14F
MARIETTA       LGT RAIN  41  40  98 CALM      30.13R
$$

GAZ059>098-102>109-201100-
CENTRAL GEORGIA

CITY           SKY/WX    TMP DP  RH WIND       PRES   REMARKS
AUGUSTA-BUSH   LGT RAIN  48  46  93 CALM      30.15F
AUGUSTA-DANIEL LGT RAIN  50  47  89 E5        30.14F
COLUMBUS       LGT RAIN  45  43  93 CALM      30.12S
MACON          CLOUDY    45  45 100 CALM      30.12F
ROBINS AFB     CLOUDY    46  44  93 NW3       30.13S


CITY           SKY/WX    TMP DP  RH WIND       PRES   REMARKS
LAGRANGE*      RAIN      46  45  97 CALM      30.11F
SYLVANIA*      LGT RAIN  49  49 100 E3        30.14S
MILLEDGEVILLE* DRIZZLE   46  46 100 CALM      30.13F
$$

GAZ099>101-110>166-201100-
SOUTH GEORGIA

CITY           SKY/WX    TMP DP  RH WIND       PRES   REMARKS
SAVANNAH       CLOUDY    51  49  92 CALM      30.14S FOG
VALDOSTA       CLOUDY    50  47  89 NE3       30.10F
ALMA           CLOUDY    50  48  93 CALM      30.11F FOG
ST SIMONS      CLOUDY    53  51  93 N8        30.11R
FT STEWART     CLOUDY    51  49  94 NE1       30.11F
ALBANY         CLOUDY    49  45  86 NE6       30.12F
HUNTER AFB     LGT RAIN  52  52 100 N5        30.11S
MOODY AFB      CLOUDY    50  47  92 E5        30.09F
BRUNSWICK      CLOUDY    54  52  94 N5        30.12R


CITY           SKY/WX    TMP DP  RH WIND       PRES   REMARKS
BAINBRIDGE*    DRIZZLE   54  52  94 NE5       30.10F
MOULTRIE*      CLOUDY    50  48  93 CALM      30.10F
VIDALIA*       CLOUDY    50  48  93 NE5       30.11F
WAYCROSS*      CLOUDY    54  52  95 CALM      30.11F
DOUGLAS*       CLOUDY    52  48  87 E5        30.12R
$$



USA.gov is the U.S. government's official web portal to all federal, state and local government web resources and services.